Mineral Wells, TX

7:25 AM CST on January 16, 2017 (GMT -0600)
Mineral Wells

Weather History for KMWL - October, 2012

Change the Weather History Date:

Thursday, October 4, 2012

  Actual Average Record
Temperature  
Mean Temperature 72 °F -  
Max Temperature 82 °F 79 °F 93 °F (1998)
Min Temperature 62 °F 57 °F 46 °F (2014)
Cooling Degree Days 6    
Growing Degree Days 22 (Base 50)    
Moisture  
Dew Point 61 °F    
Average Humidity 73    
Maximum Humidity 84    
Minimum Humidity 60    
Precipitation  
Precipitation 0.00 in - - ()
Sea Level Pressure  
Sea Level Pressure 30.03 in    
Wind  
Wind Speed 10 mph (SE)    
Max Wind Speed 13 mph    
Max Gust Speed 20 mph    
Visibility 10 miles    
Events      
Averages and records for this station are not official NWS values.
T = Trace of Precipitation, MM = Missing Value Source: NWS Daily Summary

Daily Weather History Graph

Daily Weather History Graph

Search for Another Location

Airport or City:

Trip Planner

Search our weather history database for the weather conditions in past years. The results will help you decide how hot, cold, wet, or windy it might be!

Date:

Astronomy

Oct. 04, 2012 Rise Set
Actual Time 7:28 AM CDT 7:12 PM CDT
Civil Twilight 7:04 AM CDT 7:36 PM CDT
Nautical Twilight 6:35 AM CDT 8:05 PM CDT
Astronomical Twilight 6:06 AM CDT 8:33 PM CDT
Moon 10:03 PM CDT (10/4) 11:32 AM CDT (10/4)
Length of Visible Light 12h 32m
Length of Day
11h 43m
Waning Gibbous, 82% of the Moon is Illuminated
Oct 4
Waning Gibbous
Oct 8
Last Quarter
Oct 15
New
Oct 21
First Quarter
Oct 29
Full

Hourly Weather History & Observations

Time (CDT) Temp. Heat Index Dew Point Humidity Pressure Visibility Wind Dir Wind Speed Gust Speed Precip Events Conditions
12:53 AM 66.0 °F - 55.0 °F 68% 29.96 in 10.0 mi SSE 10.4 mph - N/A   Clear
1:53 AM 64.0 °F - 55.0 °F 73% 29.95 in 10.0 mi SE 12.7 mph - N/A   Clear
2:53 AM 62.1 °F - 55.9 °F 80% 29.97 in 10.0 mi SE 11.5 mph - N/A   Clear
3:53 AM 62.1 °F - 55.9 °F 80% 29.97 in 10.0 mi SE 10.4 mph - N/A   Clear
4:53 AM 62.1 °F - 57.0 °F 84% 29.99 in 10.0 mi SE 8.1 mph - N/A   Clear
5:41 AM 62.6 °F - 57.2 °F 82% 30.02 in 10.0 mi SE 10.4 mph - N/A   Mostly Cloudy
5:53 AM 63.0 °F - 57.9 °F 84% 29.99 in 10.0 mi SE 10.4 mph - N/A   Mostly Cloudy
6:53 AM 64.9 °F - 60.1 °F 84% 30.00 in 10.0 mi SE 11.5 mph - N/A   Overcast
7:53 AM 66.0 °F - 60.1 °F 81% 30.01 in 10.0 mi SE 10.4 mph - N/A   Overcast
8:53 AM 68.0 °F - 61.0 °F 78% 30.02 in 10.0 mi SE 12.7 mph - N/A   Overcast
9:53 AM 71.1 °F - 63.0 °F 75% 30.05 in 10.0 mi SSE 10.4 mph - N/A   Overcast
10:53 AM 75.0 °F - 66.0 °F 73% 30.05 in 10.0 mi SSE 10.4 mph 19.6 mph N/A   Overcast
11:53 AM 75.9 °F - 66.0 °F 71% 30.07 in 10.0 mi SSE 11.5 mph - N/A   Overcast
12:35 PM 77.0 °F - 66.2 °F 69% 30.09 in 10.0 mi SE 9.2 mph - N/A   Overcast
12:53 PM 77.0 °F - 66.9 °F 71% 30.06 in 10.0 mi SSE 9.2 mph - N/A   Overcast
1:53 PM 79.0 °F - 66.9 °F 66% 30.04 in 10.0 mi South 4.6 mph - N/A   Overcast
2:00 PM 78.8 °F - 66.2 °F 65% 30.07 in 10.0 mi SE 6.9 mph - N/A   Overcast
2:53 PM 80.1 °F 82.1 °F 66.0 °F 62% 30.03 in 10.0 mi SSW 3.5 mph - N/A   Overcast
3:53 PM 81.0 °F 83.0 °F 66.0 °F 60% 30.02 in 10.0 mi South 5.8 mph - N/A   Overcast
4:53 PM 80.6 °F 82.7 °F 66.2 °F 61% 30.04 in 10.0 mi Calm Calm - N/A   Overcast
5:53 PM 81.0 °F 83.3 °F 66.9 °F 62% 30.00 in 10.0 mi NE 3.5 mph - N/A   Overcast
6:53 PM 79.0 °F - 68.0 °F 69% 30.01 in 10.0 mi NNE 4.6 mph - N/A   Overcast
7:53 PM 69.1 °F - 59.0 °F 70% 30.04 in 10.0 mi NW 10.4 mph - N/A   Mostly Cloudy
8:53 PM 64.9 °F - 57.0 °F 75% 30.06 in 10.0 mi NNW 11.5 mph - N/A   Partly Cloudy
9:53 PM 64.0 °F - 55.9 °F 75% 30.07 in 10.0 mi NNW 9.2 mph - N/A   Mostly Cloudy
10:53 PM 63.0 °F - 55.0 °F 75% 30.07 in 10.0 mi NNW 10.4 mph - N/A   Overcast
11:53 PM 63.0 °F - 55.0 °F 75% 30.06 in 10.0 mi NW 6.9 mph - N/A   Overcast